Flag for Germany Weather past 2 weeks in Stendal, Saxony-Anhalt, Germany

Now
52 °F

Clear.


Feels Like: 52 °F
Forecast: 45 / 73 °F
Wind: 1 mph from West

Location: Magdeburg

Current Time: Aug 28, 2014 at 1:29:33 AM

Latest Report: Aug 28, 2014 at 1:00 AM


Visibility: 31 mi

Pressure: 30.06 "Hg

Humidity: 79%

Dew point: 46 °F

Location of StendalLocation

Historic Weather in Stendal — Graph

°F

Stendal temperature yesterday

Maximum temperature yesterday: 70 °F (at 6:00 PM)
Minimum temperature yesterday: 46 °F (at 6:00 AM)
Average temperature yesterday: 58 °F

Past Weeks' High & Low Weather Summary

 TemperatureHumidityPressure
High76 °F (Aug 13, 3:00 PM)97% (Aug 26, 4:00 AM)30.07 "Hg (Aug 26, 4:00 AM)
Low45 °F (Aug 25, 7:00 AM)32% (Aug 22, 3:00 PM)29.62 "Hg (Aug 18, 3:00 PM)
Average59 °F71%29.88 "Hg
* Reported Midnight between Aug 12 and Aug 13 — Midnight between Aug 27 and Aug 28, Stendal, Weather by CustomWeather, © 2014

Note: Actual official high and low records may vary slightly from our data, if they occured in-between our weather recording intervals... More about our weather records

Advertising

Stendal weather history for previous 24 hours

 ConditionsComfort  
Time TempWeatherWind HumidityBarometerVisibility
12:00 AM
Aug 28
52 °FClear.2 mph81%30.06 "Hg40 mi
11:00 PM
Aug 27
54 °FPassing clouds.2 mph75%30.05 "Hg40 mi
10:00 PM56 °FPassing clouds.2 mph72%30.05 "Hg43 mi
9:00 PM58 °FClear.1 mph69%30.04 "Hg43 mi
8:00 PM63 °FSunny.1 mph59%30.02 "Hg43 mi
7:00 PM69 °FPassing clouds.2 mph38%30.01 "Hg43 mi
6:00 PM70 °FScattered clouds.1 mph33%30.00 "Hg43 mi
5:00 PM69 °FScattered clouds.3 mph34%30.00 "Hg37 mi
4:00 PM69 °FScattered clouds.2 mph40%30.00 "Hg37 mi
3:00 PM69 °FPartly sunny.2 mph43%30.00 "Hg37 mi
2:00 PM68 °FPartly sunny.3 mph42%30.00 "Hg37 mi
1:00 PM67 °FScattered clouds.2 mph46%30.00 "Hg37 mi
12:00 PM65 °FPartly sunny.2 mph60%29.99 "Hg37 mi
11:00 AM62 °FScattered clouds.3 mph62%29.98 "Hg31 mi
9:00 AM57 °FPassing clouds.2 mph79%29.95 "Hg28 mi
8:00 AM52 °FPassing clouds.1 mph88%29.94 "Hg22 mi
7:00 AM46 °FPassing clouds.1 mph94%29.92 "Hg17 mi
6:00 AM46 °FPassing clouds.1 mph94%29.90 "Hg16 mi
5:00 AM46 °FPassing clouds.2 mph95%29.88 "Hg7 mi
4:00 AM47 °FPassing clouds.2 mph95%29.87 "Hg6 mi
3:00 AM47 °FPassing clouds.1 mph94%29.86 "Hg6 mi
2:00 AM48 °FClear.2 mph91%29.85 "Hg7 mi
1:00 AM49 °FPassing clouds.2 mph90%29.84 "Hg7 mi
Weather by CustomWeather, © 2014

See weather overviewHow to use our weather pages